User: anonymous   Login
Location: Peebles
(55.6412°N, 3.1714°W)
Time: 19:04:21
(UTC+01:00)
Language:

CARTOSAT-1 - Orbit

View from above orbital plane
View from above orbital plane
View from above satellite
View from above satellite

Ground track
Ground track

The orbit data is extracted from the following two-line orbital elements,

1 28649U 05017A   22146.17131408  .00001135  00000-0  14207-3 0  9999
2 28649  97.7199 207.2841 0000350  27.4331 332.6902 14.84118061923457
Epoch (UTC): 26 May 2022 04:06:41
Eccentricity: 0.0000350
inclination: 97.7199°
perigee height: 616 km
apogee height: 616 km
right ascension of ascending node: 207.2841°
argument of perigee: 27.4331°
revolutions per day: 14.84118061
mean anomaly at epoch: 332.6902°
orbit number at epoch: 92345

The dashed part of the orbit path shows where the satellite is in the earth's shadow,  

DLR